Regional Weather Roundup
Issued by NWS Newport/Morehead, NC

Current Version | Previous Version | Text Only | Print | Product List | Glossary On
Versions: 1 2 3 4 5 6 7 8 9 10 11 12 13 14 15 16 17 18 19 20 21 22 23 24 25 26 27 28 29 30 31 32 33 34 35 36 37 38 39 40 41 42 43 44 45 46 47 48 49 50
000 ASUS42 KMHX 231014 RWRMHX WEATHER ROUNDUP FOR EASTERN NORTH CAROLINA NATIONAL WEATHER SERVICE NEWPORT/MOREHEAD CITY NC 600 AM EDT MON APR 23 2018 NOTE: "FAIR" INDICATES FEW OR NO CLOUDS BELOW 12,000 FEET WITH NO SIGNIFICANT WEATHER AND/OR OBSTRUCTIONS TO VISIBILITY NCZ015>017-031-032-045>047-102-103-231100- NORTH COAST CITY SKY/WX TMP DP RH WIND PRES REMARKS EDENTON FAIR 53 51 93 E5 30.36S ELIZABETH CITY FAIR 54 50 86 E7 30.37S KITTY HAWK FAIR 53 48 84 E5 30.36S MANTEO FAIR 55 49 83 E8 30.38R $$ NCZ045>047-081-094-103-104-231100- CENTRAL COAST CITY SKY/WX TMP DP RH WIND PRES REMARKS FRISCO FAIR 59 50 72 E8 30.34S $$ NCZ095-097-098-100-101-231100- SOUTHERN COAST CITY SKY/WX TMP DP RH WIND PRES REMARKS BEAUFORT FAIR 63 53 70 E9 30.30R CEDAR ISLAND NOT AVBL JACKSONVILLE FAIR 60 53 77 E7 30.29R PINEY ISLAND NOT AVBL WILMINGTON FAIR 62 51 67 E6 30.27S $$ NCZ011>013-027>030-043-044-078>080-089-090>093-098-231100- COASTAL PLAIN CITY SKY/WX TMP DP RH WIND PRES REMARKS AHOSKIE FAIR 47 46 95 CALM 30.36R CLINTON FAIR 56 53 87 CALM 30.30R ELIZABETHTOWN FAIR 55 51 86 MISG 30.27S GOLDSBORO CLOUDY 53 50 88 E8 30.29S GREENVILLE FAIR 50 48 93 CALM 30.34R HAVELOCK NOT AVBL KENANSVILLE FAIR 55 52 88 CALM 30.31R KINSTON FAIR 53 51 91 E7 30.32S NEW BERN FAIR 56 54 93 E7 30.32S RICHLANDS MOCLDY 55 53 93 NE5 30.31R ROCKY MOUNT FAIR 49 45 86 NE5 30.33S WASHINGTON FAIR 49 48 93 E6 30.34R WHITEVILLE FAIR 56 52 87 NE6 30.25S $$ AMZ130-135-150-152-154-156-158-170-250-252-270-ANZ085-086-088-633-658-670-231100- MARINE OBSERVATIONS STATION/POSITION TIME TEMP WIND PRES WAVE SWELL AIR SEA DIR/SP/G HT/PER HT/PER (UTC) (F) (DEG/KT/KT) (MB) (FT/S) (FT/S) CHESAPEAKE LIGHT NOT AVBL 64 E VA BEACH 0950 53 49 80/ 8/ 10 1029.6 2/ 9 2/ 9 DUCK 0936 54 54 90/ 14/ 16 1028.0 2 E DUCK 0930 53 N/A 2/ 3 OREGON INLET 0936 54 55 50/ 9/ 11 1028.0 13E OREGON INLT 0948 51 N/A 2/15 2/15 HATTERAS CG 0936 60 62 90/ 7/ 11 1027.0 DIAMOND BUOY 1000 66 72 100/ 14/ 17 1027.6 CAPE LOOKOUT NOT AVBL BEAUFORT LAB 0936 63 63 110/ 7/ 11 1026.1 30 SE NEW RVR IN 0908 66 65 110/ 14/ 17 1025.1 30 SE NEW RVR IN 1000 65 N/A 5/ 6 27 SE WRIGHTSVLE 0908 66 64 120/ 16/ 25 1024.2 5 SE WRIGHTSVLE 0908 63 60 110/ 10/ 14 1024.2 225 S CAPE HAT 1000 68 72 100/ 17/ 21 1023.9 41 SE CHARLESTON 0950 69 67 110/ 19/ 25 1020.6 8/ 7 $$

USA.gov is the U.S. government's official web portal to all federal, state and local government web resources and services.